Amateur Radio Satellites - All Passes

Search period start: 24 May 2013 09:39
Search period end: 25 May 2013 09:39
Location: Torch Lake Township, 45.0753°N, 85.3586°W

Satellite Date Start Highest point End Downlink Frequencies (MHz)
Time Altitude Azimuth
AO-7 24 May 09:49:03 09:53:15 15° 319° (NW) 09:57:27 29.400 - 29.500 MHz
KITSAT 1 24 May 10:03:23 10:10:31 35° 252° (WSW) 10:17:38 435.175 FM
SO-67 24 May 10:04:01 10:07:22 37° 288° (WNW) 10:10:41 435.3500 MHz FM
HO-68 24 May 10:07:43 10:13:20 24° 92° (E) 10:18:55 435.675 MHz FM
JAS-1B 24 May 10:20:56 10:26:51 52° 292° (WNW) 10:32:18 435.800 - 435.900 CW/SSB
Hamsat 24 May 10:23:50 10:25:57 13° 299° (WNW) 10:28:04 145.90 MHz
PCSat 24 May 10:32:24 10:35:45 16° 326° (NW) 10:39:07 145.825 MHz
ISS 24 May 10:35:15 10:37:22 16° 226° (SW) 10:39:28 145.800 FM
Oscar 11 24 May 10:48:42 10:52:14 24° 94° (E) 10:55:46 145.825 FM, Beacon 2401.500 USB
SO-50 24 May 10:55:01 10:59:08 28° 318° (NW) 11:03:12 436.795 FM
Sapphire 24 May 11:07:38 11:09:29 12° 333° (NNW) 11:11:20 437.095 MHz 1200 baud AX-25 AFSK
JAS-2 24 May 11:13:19 11:20:07 55° 98° (E) 11:26:03 435.800 - 435.900 CW/SSB, 435.910 FM
MaSat-1 24 May 11:33:28 11:36:48 43° 56° (NE) 11:39:32 437.345 MHz
HO-68 24 May 11:54:29 12:01:37 71° 291° (WNW) 12:08:44 435.675 MHz FM
OPAL 24 May 12:05:26 12:10:22 55° 103° (ESE) 12:15:13 ?
UOSAT-12 24 May 12:05:26 12:09:49 53° 120° (ESE) 12:14:16 437.025 FM, 437.400 FM
Oscar 11 24 May 12:24:34 12:28:33 35° 291° (WNW) 12:32:32 145.825 FM, Beacon 2401.500 USB
Saudisat 1A 24 May 12:34:34 12:35:52 11° 25° (NNE) 12:37:10 436.775 MHz
JAS-2 24 May 12:58:51 13:04:44 30° 301° (WNW) 13:10:02 435.800 - 435.900 CW/SSB, 435.910 FM
Oscar 19 24 May 13:12:02 13:15:12 17° 58° (ENE) 13:18:22 437.125 CW, 437.150 USB
Uribyol 2 24 May 13:12:44 13:15:34 15° 57° (ENE) 13:18:25 436.500 FM
HO-68 24 May 13:43:59 13:48:06 17° 311° (NW) 13:52:14 435.675 MHz FM
OPAL 24 May 13:45:10 13:48:53 21° 301° (WNW) 13:52:34 ?
UOSAT-12 24 May 13:46:32 13:50:17 25° 320° (NW) 13:54:05 437.025 FM, 437.400 FM
Oscar 16 24 May 13:49:42 13:54:29 38° 67° (ENE) 13:59:17 437.025 USB, Beacon 2401.1428
AO-27 24 May 14:02:55 14:07:39 37° 67° (ENE) 14:12:25 436.795 MHz FM
ITAMSAT 1 24 May 14:09:00 14:13:49 41° 68° (ENE) 14:18:41 435.822 SSB
Saudisat 1A 24 May 14:12:29 14:16:50 41° 47° (NE) 14:21:05 436.775 MHz
Uosat F 24 May 14:36:18 14:38:24 13° 56° (NE) 14:40:29 435.120 FM
AO-Echo 24 May 14:39:41 14:43:38 26° 65° (ENE) 14:47:32 ?
Sapphire 24 May 14:40:04 14:42:08 12° 28° (NNE) 14:44:11 437.095 MHz 1200 baud AX-25 AFSK
Gurwin Techsat 1B 24 May 14:40:40 14:42:41 12° 55° (NE) 14:44:43 435.225 FM
Oscar 19 24 May 14:48:44 14:53:56 78° 257° (WSW) 14:59:10 437.125 CW, 437.150 USB
Uribyol 2 24 May 14:49:10 14:54:21 86° 256° (WSW) 14:59:36 436.500 FM
AO-7 24 May 15:14:44 15:19:25 17° 42° (NE) 15:24:07 29.400 - 29.500 MHz
Oscar 16 24 May 15:29:23 15:33:55 30° 265° (W) 15:38:28 437.025 USB, Beacon 2401.1428
AO-27 24 May 15:42:42 15:47:14 30° 265° (W) 15:51:48 436.795 MHz FM
PCSat 24 May 15:48:59 15:53:40 28° 44° (NE) 15:58:19 145.825 MHz
ITAMSAT 1 24 May 15:49:05 15:53:28 27° 266° (W) 15:57:53 435.822 SSB
Saudisat 1A 24 May 15:52:31 15:56:22 27° 246° (WSW) 16:00:09 436.775 MHz
TMSAT-1 24 May 15:54:13 15:58:56 34° 66° (ENE) 16:03:40 436.925 FM
SO-50 24 May 16:04:19 16:07:10 16° 32° (NNE) 16:09:58 436.795 FM
Uosat F 24 May 16:11:25 16:16:25 84° 74° (ENE) 16:21:27 435.120 FM
Gurwin Techsat 1B 24 May 16:16:29 16:21:46 75° 74° (ENE) 16:27:06 435.225 FM
AO-Echo 24 May 16:17:48 16:22:17 38° 262° (W) 16:26:43 ?
RS-15 24 May 16:20:55 16:31:47 42° 109° (ESE) 16:42:14 29.354 - 29.394 USB, Beacon 29.352 USB
Sapphire 24 May 16:21:51 16:27:03 44° 50° (NE) 16:32:13 437.095 MHz 1200 baud AX-25 AFSK
Uribyol 2 24 May 16:33:05 16:34:37 11° 273° (W) 16:36:10 436.500 FM
AO-7 24 May 17:02:29 17:10:34 61° 64° (ENE) 17:18:43 29.400 - 29.500 MHz
PCSat 24 May 17:32:07 17:37:26 55° 244° (WSW) 17:42:42 145.825 MHz
TMSAT-1 24 May 17:34:01 17:38:49 35° 264° (W) 17:43:40 436.925 FM
SO-50 24 May 17:44:00 17:48:35 76° 53° (NE) 17:53:04 436.795 FM
Uosat F 24 May 17:53:51 17:55:53 12° 272° (W) 17:57:56 435.120 FM
Gurwin Techsat 1B 24 May 17:59:18 18:02:20 15° 271° (W) 18:05:23 435.225 FM
Sapphire 24 May 18:05:35 18:10:20 32° 250° (WSW) 18:15:04 437.095 MHz 1200 baud AX-25 AFSK
RS-15 24 May 18:31:47 18:43:43 67° 312° (NW) 18:55:09 29.354 - 29.394 USB, Beacon 29.352 USB
UOSAT-12 24 May 18:53:57 18:56:57 17° 33° (NNE) 18:59:58 437.025 FM, 437.400 FM
AO-7 24 May 18:56:30 19:03:47 34° 264° (W) 19:11:09 29.400 - 29.500 MHz
JAS-1B 24 May 19:16:07 19:23:46 35° 63° (ENE) 19:30:24 435.800 - 435.900 CW/SSB
STRAND 1 24 May 19:22:08 19:26:29 27° 95° (E) 19:30:49 ?
SO-50 24 May 19:26:20 19:28:34 14° 251° (WSW) 19:30:48 436.795 FM
Hamsat 24 May 19:42:02 19:46:12 66° 74° (ENE) 19:50:27 145.90 MHz
UOSAT-12 24 May 20:33:14 20:37:52 82° 54° (NE) 20:42:28 437.025 FM, 437.400 FM
HO-68 24 May 20:39:10 20:44:41 25° 55° (NE) 20:50:12 435.675 MHz FM
SO-67 24 May 20:41:20 20:44:54 78° 258° (WSW) 20:48:29 435.3500 MHz FM
RS-15 24 May 20:48:41 20:58:44 31° 342° (NNW) 21:08:27 29.354 - 29.394 USB, Beacon 29.352 USB
STRAND 1 24 May 21:01:00 21:05:49 41° 292° (WNW) 21:10:37 ?
JAS-1B 24 May 21:05:05 21:14:03 61° 259° (WSW) 21:21:40 435.800 - 435.900 CW/SSB
Hamsat 24 May 21:21:04 21:22:45 12° 272° (W) 21:24:27 145.90 MHz
JAS-2 24 May 21:25:47 21:32:44 37° 62° (ENE) 21:39:38 435.800 - 435.900 CW/SSB, 435.910 FM
OPAL 24 May 21:45:32 21:49:08 20° 58° (ENE) 21:52:43 ?
Oscar 11 24 May 21:46:13 21:49:44 25° 66° (ENE) 21:53:17 145.825 FM, Beacon 2401.500 USB
UOSAT-12 24 May 22:15:14 22:17:24 13° 251° (WSW) 22:19:33 437.025 FM, 437.400 FM
HO-68 24 May 22:24:34 22:31:42 77° 255° (WSW) 22:38:53 435.675 MHz FM
KITSAT 1 24 May 22:39:01 22:45:44 30° 107° (ESE) 22:52:28 435.175 FM
JAS-1B 24 May 23:03:06 23:05:44 12° 276° (W) 23:08:17 435.800 - 435.900 CW/SSB
RS-15 24 May 23:05:53 23:15:38 31° 17° (NNE) 23:25:03 29.354 - 29.394 USB, Beacon 29.352 USB
JAS-2 24 May 23:09:45 23:17:24 58° 261° (W) 23:25:05 435.800 - 435.900 CW/SSB, 435.910 FM
Oscar 11 24 May 23:21:55 23:25:50 33° 263° (W) 23:29:47 145.825 FM, Beacon 2401.500 USB
OPAL 24 May 23:22:23 23:27:33 67° 255° (WSW) 23:32:41 ?
HO-68 25 May 00:17:07 00:20:32 14° 274° (W) 00:23:59 435.675 MHz FM
KITSAT 1 25 May 00:32:29 00:40:31 69° 307° (NW) 00:48:39 435.175 FM
JAS-2 25 May 01:02:14 01:03:56 11° 280° (W) 01:05:38 435.800 - 435.900 CW/SSB, 435.910 FM
RS-15 25 May 01:19:28 01:30:39 66° 48° (NE) 01:41:28 29.354 - 29.394 USB, Beacon 29.352 USB
AO-40 25 May 01:26:15 03:40:34 18° 126° (SE) 05:01:21 Beacon 2401.320
Oscar 16 25 May 02:02:02 02:03:20 11° 86° (E) 02:04:38 437.025 USB, Beacon 2401.1428
MaSat-1 25 May 02:05:11 02:11:52 52° 113° (ESE) 02:17:22 437.345 MHz
AO-27 25 May 02:16:28 02:17:47 11° 87° (E) 02:19:07 436.795 MHz FM
ITAMSAT 1 25 May 02:21:51 02:23:56 12° 87° (E) 02:26:00 435.822 SSB
KITSAT 1 25 May 02:31:10 02:37:31 25° 332° (NNW) 02:43:56 435.175 FM
Oscar 19 25 May 02:58:47 03:03:25 32° 96° (E) 03:08:00 437.125 CW, 437.150 USB
Uribyol 2 25 May 03:00:24 03:04:58 29° 95° (E) 03:09:29 436.500 FM
ISS 25 May 03:17:32 03:20:47 58° 145° (SE) 03:24:04 145.800 FM
RS-15 25 May 03:32:31 03:42:24 40° 252° (WSW) 03:52:08 29.354 - 29.394 USB, Beacon 29.352 USB
Oscar 16 25 May 03:38:16 03:43:30 85° 104° (ESE) 03:48:39 437.025 USB, Beacon 2401.1428
MaSat-1 25 May 03:48:16 03:54:08 33° 306° (NW) 03:58:59 437.345 MHz
AO-27 25 May 03:52:51 03:58:07 84° 104° (ESE) 04:03:21 436.795 MHz FM
ITAMSAT 1 25 May 03:58:53 04:04:09 89° 285° (WNW) 04:09:24 435.822 SSB
TMSAT-1 25 May 04:10:34 04:11:47 11° 86° (E) 04:12:59 436.925 FM
Uosat F 25 May 04:17:57 04:21:52 22° 93° (E) 04:25:45 435.120 FM
AO-Echo 25 May 04:22:22 04:27:03 56° 101° (E) 04:31:50 ?
Gurwin Techsat 1B 25 May 04:31:16 04:35:42 26° 94° (E) 04:40:05 435.225 FM
KITSAT 1 25 May 04:31:35 04:36:24 16° 2° (N) 04:41:14 435.175 FM
Oscar 19 25 May 04:38:08 04:42:47 35° 294° (WNW) 04:47:24 437.125 CW, 437.150 USB
Uribyol 2 25 May 04:39:41 04:44:32 39° 293° (WNW) 04:49:21 436.500 FM
ISS 25 May 04:54:34 04:57:39 34° 344° (NNW) 05:00:45 145.800 FM
AO-7 25 May 05:03:45 05:08:23 16° 87° (E) 05:13:00 29.400 - 29.500 MHz
Oscar 16 25 May 05:19:18 05:22:10 15° 303° (WNW) 05:25:01 437.025 USB, Beacon 2401.1428
AO-27 25 May 05:33:58 05:36:58 16° 302° (WNW) 05:39:57 436.795 MHz FM
ITAMSAT 1 25 May 05:40:14 05:42:55 14° 303° (WNW) 05:45:36 435.822 SSB
TMSAT-1 25 May 05:47:11 05:52:32 82° 103° (ESE) 05:57:51 436.925 FM
Uosat F 25 May 05:56:05 06:00:55 48° 290° (WNW) 06:05:45 435.120 FM
Saudisat 1A 25 May 06:00:50 06:05:14 49° 120° (ESE) 06:09:41 436.775 MHz
AO-Echo 25 May 06:02:11 06:05:29 19° 298° (WNW) 06:08:50 ?
Gurwin Techsat 1B 25 May 06:10:49 06:15:52 45° 291° (WNW) 06:20:53 435.225 FM
KITSAT 1 25 May 06:28:18 06:35:05 28° 32° (NNE) 06:41:51 435.175 FM
ISS 25 May 06:32:06 06:34:58 26° 5° (N) 06:37:51 145.800 FM
PCSat 25 May 06:35:38 06:38:17 14° 103° (ESE) 06:40:57 145.825 MHz
STRAND 1 25 May 06:40:02 06:44:54 48° 69° (ENE) 06:49:48 ?
AO-7 25 May 06:54:08 07:02:33 76° 107° (ESE) 07:10:55 29.400 - 29.500 MHz
Sapphire 25 May 07:06:44 07:11:03 25° 108° (ESE) 07:15:23 437.095 MHz 1200 baud AX-25 AFSK
TMSAT-1 25 May 07:28:39 07:31:49 16° 302° (WNW) 07:34:58 436.925 FM
Hamsat 25 May 07:29:01 07:30:13 11° 88° (E) 07:31:24 145.90 MHz
Saudisat 1A 25 May 07:41:15 07:45:10 27° 319° (NW) 07:49:07 436.775 MHz
SO-50 25 May 08:02:59 08:05:54 16° 110° (ESE) 08:08:47 436.795 FM
ISS 25 May 08:08:51 08:12:10 55° 24° (NNE) 08:15:28 145.800 FM
PCSat 25 May 08:15:30 08:20:55 89° 301° (WNW) 08:26:23 145.825 MHz
STRAND 1 25 May 08:20:22 08:24:21 23° 267° (W) 08:28:22 ?
KITSAT 1 25 May 08:23:33 08:31:45 83° 56° (NE) 08:39:53 435.175 FM
AO-7 25 May 08:47:46 08:54:37 30° 307° (NW) 09:01:29 29.400 - 29.500 MHz
Sapphire 25 May 08:48:51 08:54:08 54° 307° (NW) 08:59:28 437.095 MHz 1200 baud AX-25 AFSK
JAS-1B 25 May 08:49:36 08:54:54 32° 94° (E) 08:59:54 435.800 - 435.900 CW/SSB
Hamsat 25 May 09:02:26 09:06:49 77° 285° (WNW) 09:11:12 145.90 MHz

Developed and maintained by Chris Peat, Heavens-Above GmbH. Please read the updated FAQ before sending e-mail. Imprint. DLR
